User: anonymous   Login
Location: Unspecified
(0.0000°N, 0.0000°E)
Time: 22:55:33
(UTC+00:00)
Language:

OBJECT AA - Orbit

View from above orbital plane
View from above orbital plane
View from above satellite
View from above satellite

Ground track
Ground track

The orbit data is extracted from the following two-line orbital elements,

1 42849U 17042AA  23083.80871513  .00006540  00000-0  60728-3 0  9991
2 42849  97.3944 291.3958 0008815 126.8580 233.3451 14.94678251310163
Epoch (UTC): 24 March 2023 19:24:32
Eccentricity: 0.0008815
inclination: 97.3944°
perigee height: 577 km
apogee height: 589 km
right ascension of ascending node: 291.3958°
argument of perigee: 126.8580°
revolutions per day: 14.94678251
mean anomaly at epoch: 233.3451°
orbit number at epoch: 31016

The dashed part of the orbit path shows where the satellite is in the earth's shadow,  

DLR